[[{"header":{"parameterUnit":"m.s-1","parameterCategory":1,"la1":30.2991,"la2":30.254,"lo1":-89.0895,"lo2":-89.0444,"dy":0.0017,"dx":0.0017,"nx":28,"ny":28,"refTime":"2023-11-13T03:00:00:Z","depth":0,"parameterNumber":2,"parameterNumberName":"U-component_of_WINDS"},"data":[0,0,0,0,0,0,0,0,0,0,0,0,0,0,0,0,0,0,0,0,0,0,0,0,0,0,0,0,0,0,0,0,0,0,0,0,0,0,0,0,0,0,0,0,0,0,0,0,0,0,0,0,0,0,0,0,0,0,-5.0238,-5.0238,0,-5.0262,-5.0262,-5.0262,-5.0129,-5.0125,-5.0121,-5.0117,-5.0142,-5.0146,-5.0151,0,0,0,0,0,0,0,0,0,0,0,0,0,-5.0077,-5.0081,-5.0238,-5.0238,-5.0239,-5.0262,-5.0262,-5.0262,-5.0129,-5.0125,-5.012,-5.0116,-5.0141,-5.0146,-5.0151,0,0,0,0,0,0,0,0,0,0,0,0,0,-5.0129,-5.0082,-5.0238,-5.0175,-5.017,-5.0262,-5.0262,-5.0262,-5.013,-5.0125,-5.0119,-5.0113,-5.0139,-5.0145,-5.0152,-5.0305,0,0,-5.0171,-5.0174,0,0,0,0,0,0,0,0,-5.0126,-5.0135,-5.0184,-5.018,-5.0174,-5.0186,-5.0214,-5.0277,-5.0132,-5.0145,-5.0117,-5.0111,-5.0162,-5.0166,-5.0183,-5.0307,-5.0308,-5.0172,-5.0175,-5.0178,-5.018,0,0,0,0,0,0,0,-5.0123,-5.0133,-5.0247,-5.0185,-5.0179,-5.0145,-5.0146,-5.0226,-5.0185,-5.0144,-5.0134,-5.0139,-5.0158,-5.0177,-5.0182,-5.0308,-5.0171,-5.0177,-5.0181,-5.0183,-5.0558,-5.0564,0,0,0,0,0,0,-5.0128,-5.0131,-5.0247,-5.0248,-5.0135,-5.0153,-5.0154,-5.0188,-5.0184,-5.0178,-5.0143,-5.0132,-5.0169,-5.0175,-5.0183,-5.0362,-5.0178,-5.0184,-5.0188,-5.0552,-5.0559,-5.0566,0,0,0,0,0,0,-5.0125,-5.0139,-5.0246,-5.0187,-5.0198,-5.0162,-5.0201,-5.0192,-5.0211,-5.0184,-5.0176,-5.0171,-5.0165,-5.0174,-5.0276,-5.0361,-5.0187,-5.0193,-5.0545,-5.0554,-5.0563,-5.0723,0,0,0,0,0,0,-5.0121,-5.0139,-5.0197,-5.0189,-5.0202,-5.0339,-5.0206,-5.0196,-5.0222,-5.0208,-5.0207,-5.0202,-5.0161,-5.0267,-5.0282,-5.0367,-5.0198,-5.0537,-5.0549,-5.056,-5.071,-5.0736,-5.0759,0,0,0,0,0,-5.0115,-5.0242,-5.0201,-5.0216,-5.0274,-5.0344,-5.0351,-5.0301,-5.0229,-5.0288,-5.027,-5.0202,-5.0349,-5.0278,-5.0294,-5.0382,-5.0531,-5.0545,-5.0559,-5.0699,-5.0731,-5.0759,0,0,0,0,0,0,-5.0261,-5.024,-5.0194,-5.0322,-5.0336,-5.0322,-5.0394,-5.0338,-5.0373,-5.0358,-5.0294,-5.0295,-5.0408,-5.0405,-5.0327,-5.053,-5.0428,-5.0445,-5.0528,-5.0559,-5.0583,-5.0582,-5.0203,0,0,0,0,0,-5.0308,-5.0367,-5.0345,-5.046,-5.0469,-5.0431,-5.0459,-5.0419,-5.0432,-5.0437,-5.0427,-5.0441,-5.049,-5.0524,-5.0568,-5.0708,-5.0706,-5.0776,-5.0801,-5.0821,-5.0838,-5.0911,-5.0942,-5.0611,-5.0611,-5.0611,0,0,-5.0407,-5.0402,-5.0443,-5.0489,-5.0495,-5.0558,-5.0437,-5.0508,-5.0553,-5.0448,-5.0543,-5.0536,-5.0548,-5.067,-5.0722,-5.0671,-5.0928,-5.0839,-5.0856,-5.0861,-5.0928,-5.096,-5.0988,-5.0621,-5.0619,-5.0618,0,0,-5.0617,-5.0619,-5.0715,-5.0723,-5.0734,-5.0707,-5.073,-5.0724,-5.0715,-5.081,-5.0732,-5.0785,-5.0871,-5.0882,-5.09,-5.1113,-5.1051,-5.1129,-5.1258,-5.133,-5.1357,-5.1379,-5.1455,-5.1483,-5.1145,-5.1145,-5.1146,0,-5.0738,-5.0828,-5.0771,-5.0848,-5.087,-5.0776,-5.0873,-5.0883,-5.0908,-5.0926,-5.0867,-5.0973,-5.0974,-5.1096,-5.1148,-5.1165,-5.119,-5.1129,-5.1357,-5.138,-5.14,-5.1472,-5.1501,-5.1155,-5.1154,-5.1153,-5.1152,0,-5.0976,-5.104,-5.1116,-5.1142,-5.1172,-5.1259,-5.1214,-5.1252,-5.1209,-5.1189,-5.1286,-5.1284,-5.1325,-5.1351,-5.131,-5.1468,-5.1435,-5.1368,-5.1264,-5.1442,-5.1508,-5.1535,-5.1168,-5.1165,-5.1162,-5.116,0,0,-5.1281,-5.1273,-5.1302,-5.1312,-5.1316,-5.1364,-5.1445,-5.1485,-5.1519,-5.1539,-5.1605,-5.168,-5.1617,-5.1637,-5.1596,-5.1659,-5.1828,-5.1584,-5.1583,-5.163,-5.2002,-5.2053,-5.2086,-5.1787,-5.1792,-5.1796,-5.2001,0,-5.1487,-5.1626,-5.1576,-5.1718,-5.1776,-5.1687,-5.1757,-5.1767,-5.175,-5.1796,-5.1776,-5.1831,-5.1744,-5.1755,-5.1813,-5.1796,-5.1902,-5.178,-5.1848,-5.1852,-5.1849,-5.212,-5.2175,-5.2368,-5.2026,-5.2031,-5.2034,0,-5.1747,-5.1776,-5.1924,-5.1916,-5.1939,-5.2003,-5.2035,-5.2081,-5.209,-5.2073,-5.2094,-5.204,-5.2118,-5.2013,-5.2121,-5.2039,-5.2063,-5.2059,-5.2065,-5.207,-5.1954,-5.2133,-5.2429,-5.2458,-5.2074,-5.2071,-5.2068,0,-5.1955,-5.2031,-5.2129,-5.214,-5.2134,-5.2182,-5.2181,-5.2185,-5.2212,-5.2239,-5.2256,-5.2293,-5.2314,-5.2344,-5.23,-5.2228,-5.2414,-5.2306,-5.2402,-5.2404,-5.2446,-5.2444,-5.2751,-5.2462,-5.2461,-5.2461,-5.246,0,-5.2191,-5.2284,-5.2222,-5.2283,-5.2385,-5.2326,-5.2429,-5.2418,-5.2422,-5.2478,-5.2403,-5.2458,-5.2397,-5.2446,-5.2412,-5.2506,-5.2516,-5.2504,-5.2494,-5.2511,-5.2513,-5.2527,-5.2513,-5.2468,-5.2467,-5.2465,-5.2464,0,-5.2441,-5.2403,-5.2504,-5.2489,-5.2488,-5.2564,-5.2551,-5.2606,-5.2582,-5.2655,-5.2669,-5.2632,-5.2685,-5.2644,-5.2697,-5.2674,-5.2799,-5.277,-5.2796,-5.2788,-5.2887,-5.2879,-5.3214,-5.3255,-5.294,-5.2943,-5.2945,0,-5.2595,-5.2665,-5.2657,-5.2689,-5.2694,-5.2747,-5.2773,-5.2718,-5.2749,-5.2763,-5.2817,-5.2864,-5.2898,-5.2988,-5.2966,-5.3005,-5.2977,-5.3092,-5.2983,-5.2997,-5.2979,-5.2976,-5.2982,-5.3114,-5.3118,-5.3121,-5.3123,0,-5.2871,-5.2848,-5.289,-5.2925,-5.2959,-5.2983,-5.3002,-5.3033,-5.2976,-5.3015,-5.3068,-5.3095,-5.3148,-5.3195,-5.3227,-5.3226,-5.3166,-5.3158,-5.3182,-5.3201,-5.3213,-5.3208,-5.2857,-5.3151,-5.3148,-5.3146,-5.3144,-5.3143,-5.3078,-5.3136,-5.3139,-5.3187,-5.3195,-5.3214,-5.3265,-5.3247,-5.3291,-5.3329,-5.3294,-5.3358,-5.3364,-5.34,-5.3406,-5.3456,-5.3408,-5.3444,-5.3453,-5.3463,-5.3477,-5.3205,-5.3461,-5.346,-5.346,-5.3459,-5.3458,0,-5.3351,-5.3348,-5.3393,-5.3421,-5.3459,-5.3398,-5.3415,-5.3451,-5.3508,-5.3518,-5.3554,-5.3615,-5.366,-5.3641,-5.368,-5.3724,-5.3697,-5.3736,-5.3733,-5.3733,-5.3517,-5.3492,-5.3757,-5.3757,-5.3757,-5.3757,-5.3757,-5.3756,-5.3497,-5.3591,-5.3569,-5.3666,-5.3662,-5.3724,-5.374,-5.3756,-5.3764,-5.3836,-5.3872,-5.3859,-5.3858,-5.3896,-5.3935,-5.3928,-5.3946,-5.3996,-5.3979,-5.3778,-5.3749,-5.3721,-5.3697,-5.4,-5.4,-5.4191,-5.4193,-5.4194]},{"header":{"parameterUnit":"m.s-1","parameterCategory":1,"la1":30.2991,"la2":30.254,"lo1":-89.0895,"lo2":-89.0444,"dy":0.0017,"dx":0.0017,"nx":28,"ny":28,"refTime":"2023-11-13T03:00:00:Z","depth":0,"parameterNumber":3,"parameterNumberName":"V-component_of_WINDS"},"data":[0,0,0,0,0,0,0,0,0,0,0,0,0,0,0,0,0,0,0,0,0,0,0,0,0,0,0,0,0,0,0,0,0,0,0,0,0,0,0,0,0,0,0,0,0,0,0,0,0,0,0,0,0,0,0,0,0,0,-4.7097,-4.7098,0,-4.7134,-4.7134,-4.7135,-4.7079,-4.7077,-4.7075,-4.7073,-4.7108,-4.7111,-4.7114,0,0,0,0,0,0,0,0,0,0,0,0,0,-4.6976,-4.6979,-4.7097,-4.7098,-4.7098,-4.7134,-4.7134,-4.7135,-4.7079,-4.7077,-4.7075,-4.7072,-4.7107,-4.7111,-4.7114,0,0,0,0,0,0,0,0,0,0,0,0,0,-4.7022,-4.698,-4.7097,-4.7075,-4.7073,-4.7134,-4.7134,-4.7135,-4.708,-4.7077,-4.7074,-4.7071,-4.7106,-4.711,-4.7114,-4.7197,0,0,-4.7127,-4.7129,0,0,0,0,0,0,0,0,-4.702,-4.7027,-4.7078,-4.7077,-4.7075,-4.7099,-4.7104,-4.7156,-4.708,-4.7077,-4.7073,-4.707,-4.7107,-4.7111,-4.7124,-4.7199,-4.72,-4.7127,-4.713,-4.7131,-4.7133,0,0,0,0,0,0,0,-4.7017,-4.7025,-4.7112,-4.7079,-4.7077,-4.7062,-4.7065,-4.7114,-4.7108,-4.7077,-4.7073,-4.7079,-4.7106,-4.712,-4.7125,-4.7201,-4.7127,-4.7131,-4.7133,-4.7135,-4.7343,-4.7346,0,0,0,0,0,0,-4.7017,-4.7023,-4.711,-4.7113,-4.704,-4.7066,-4.707,-4.7094,-4.7107,-4.7107,-4.7081,-4.7076,-4.7115,-4.712,-4.7126,-4.7222,-4.7131,-4.7135,-4.7138,-4.734,-4.7344,-4.7347,0,0,0,0,0,0,-4.7014,-4.7025,-4.7109,-4.7067,-4.7076,-4.7072,-4.7099,-4.7096,-4.7111,-4.711,-4.7108,-4.7097,-4.7113,-4.712,-4.7179,-4.7222,-4.7137,-4.7141,-4.7336,-4.7341,-4.7345,-4.7417,0,0,0,0,0,0,-4.7011,-4.7024,-4.7057,-4.7068,-4.7079,-4.7164,-4.7102,-4.7099,-4.7118,-4.7112,-4.7125,-4.7124,-4.7111,-4.7174,-4.7184,-4.7227,-4.7144,-4.7332,-4.7338,-4.7344,-4.741,-4.7423,-4.7434,0,0,0,0,0,-4.7007,-4.7076,-4.7059,-4.707,-4.712,-4.7166,-4.7172,-4.7157,-4.7122,-4.7154,-4.7153,-4.7124,-4.7216,-4.718,-4.7191,-4.7236,-4.733,-4.7337,-4.7343,-4.7405,-4.7421,-4.7434,0,0,0,0,0,0,-4.707,-4.7077,-4.7058,-4.7133,-4.715,-4.7157,-4.7197,-4.7174,-4.72,-4.7193,-4.7171,-4.7175,-4.7238,-4.7243,-4.7203,-4.7316,-4.7267,-4.7276,-4.731,-4.7325,-4.7337,-4.7334,-4.7147,0,0,0,0,0,-4.7093,-4.7131,-4.7135,-4.72,-4.7209,-4.7202,-4.7222,-4.7208,-4.7224,-4.723,-4.7234,-4.725,-4.7282,-4.7304,-4.7334,-4.7411,-4.7412,-4.7447,-4.7459,-4.7468,-4.7476,-4.7515,-4.753,-4.737,-4.737,-4.737,0,0,-4.714,-4.7148,-4.7174,-4.7213,-4.7224,-4.7263,-4.7208,-4.7252,-4.728,-4.7237,-4.7293,-4.7296,-4.7312,-4.738,-4.7411,-4.7386,-4.7521,-4.7477,-4.7485,-4.7488,-4.7524,-4.7539,-4.7553,-4.7374,-4.7374,-4.7373,0,0,-4.7246,-4.7257,-4.7311,-4.7323,-4.7341,-4.7335,-4.7348,-4.7359,-4.7359,-4.7415,-4.7383,-4.7415,-4.7472,-4.7484,-4.7498,-4.7606,-4.7579,-4.7616,-4.7678,-4.7716,-4.7729,-4.774,-4.7776,-4.779,-4.7625,-4.7625,-4.7625,0,-4.7302,-4.736,-4.7342,-4.7388,-4.7405,-4.7368,-4.7422,-4.7434,-4.746,-4.7473,-4.7445,-4.7514,-4.7522,-4.7592,-4.7618,-4.7631,-4.7644,-4.7615,-4.7728,-4.7739,-4.7749,-4.7784,-4.7798,-4.7629,-4.7628,-4.7628,-4.7628,0,-4.7427,-4.7468,-4.751,-4.7536,-4.7558,-4.7608,-4.7596,-4.762,-4.7604,-4.7601,-4.7657,-4.7665,-4.7695,-4.7711,-4.7696,-4.7778,-4.7762,-4.7732,-4.7682,-4.7769,-4.7801,-4.7815,-4.7635,-4.7634,-4.7632,-4.7631,0,0,-4.7575,-4.7589,-4.7605,-4.7615,-4.7631,-4.7661,-4.7708,-4.7738,-4.7758,-4.7777,-4.7815,-4.7863,-4.7834,-4.785,-4.7836,-4.7869,-4.7952,-4.7835,-4.7835,-4.7855,-4.8041,-4.8062,-4.8078,-4.7935,-4.7937,-4.7939,-4.8039,0,-4.7678,-4.7761,-4.7745,-4.7824,-4.786,-4.7824,-4.7865,-4.7878,-4.7876,-4.7905,-4.7902,-4.7936,-4.7897,-4.7906,-4.7937,-4.7935,-4.7989,-4.7928,-4.7968,-4.797,-4.7964,-4.8095,-4.8119,-4.8213,-4.8051,-4.8054,-4.8055,0,-4.7811,-4.7834,-4.7918,-4.7925,-4.794,-4.7977,-4.8001,-4.8031,-4.8044,-4.804,-4.8056,-4.8035,-4.808,-4.803,-4.8091,-4.805,-4.8065,-4.8067,-4.807,-4.8072,-4.8017,-4.81,-4.8242,-4.8256,-4.8075,-4.8074,-4.8072,0,-4.7908,-4.796,-4.8016,-4.8026,-4.8038,-4.8064,-4.807,-4.808,-4.8098,-4.812,-4.8131,-4.8157,-4.8171,-4.8191,-4.8177,-4.8143,-4.824,-4.8189,-4.8236,-4.8236,-4.8258,-4.8256,-4.8403,-4.827,-4.8269,-4.8269,-4.8269,0,-4.8025,-4.8077,-4.806,-4.8094,-4.815,-4.8131,-4.8187,-4.8188,-4.8197,-4.823,-4.8201,-4.8232,-4.8212,-4.8241,-4.823,-4.8281,-4.8288,-4.8284,-4.8281,-4.8287,-4.8287,-4.8296,-4.8288,-4.8273,-4.8272,-4.8271,-4.8271,0,-4.8143,-4.8134,-4.8192,-4.8197,-4.82,-4.8241,-4.8244,-4.8275,-4.827,-4.8312,-4.8321,-4.8313,-4.8345,-4.8333,-4.8368,-4.836,-4.8425,-4.8413,-4.842,-4.8417,-4.8464,-4.8459,-4.8621,-4.864,-4.8495,-4.8497,-4.8498,0,-4.8218,-4.8257,-4.8266,-4.8286,-4.8293,-4.8326,-4.8344,-4.8326,-4.8346,-4.8363,-4.8391,-4.8421,-4.8444,-4.8498,-4.8494,-4.852,-4.8508,-4.8563,-4.8512,-4.8516,-4.8507,-4.8505,-4.8507,-4.8573,-4.8575,-4.8576,-4.8577,0,-4.8351,-4.8344,-4.8372,-4.8397,-4.8419,-4.8438,-4.8455,-4.8473,-4.8455,-4.8478,-4.8511,-4.8529,-4.8564,-4.8594,-4.8616,-4.8621,-4.8596,-4.8593,-4.8605,-4.8611,-4.8613,-4.8611,-4.8447,-4.8589,-4.8588,-4.8587,-4.8587,-4.8586,-4.8449,-4.8481,-4.8492,-4.8523,-4.8533,-4.8548,-4.8577,-4.8575,-4.8602,-4.863,-4.8617,-4.8655,-4.8665,-4.8693,-4.8701,-4.8729,-4.8707,-4.8725,-4.8729,-4.8734,-4.8739,-4.8609,-4.8733,-4.8733,-4.8732,-4.8732,-4.8732,0,-4.8579,-4.8584,-4.8613,-4.8636,-4.866,-4.8634,-4.865,-4.8672,-4.8705,-4.8717,-4.874,-4.8777,-4.8805,-4.8803,-4.8829,-4.8852,-4.8841,-4.8859,-4.8856,-4.8857,-4.8758,-4.8744,-4.8867,-4.8867,-4.8867,-4.8867,-4.8867,-4.8867,-4.865,-4.8702,-4.8696,-4.8752,-4.8756,-4.8793,-4.8804,-4.8817,-4.8826,-4.8869,-4.8892,-4.8891,-4.8897,-4.8922,-4.8946,-4.8945,-4.8955,-4.8977,-4.8972,-4.8878,-4.8865,-4.8852,-4.8839,-4.898,-4.898,-4.9069,-4.9069,-4.907]}]]